sat.trackr.live / text

‹ back to catalog

BEIDOU-3 M20 (C42)

NORAD 44865 · 2019-090B

PAYLOAD ACTIVE UNKNOWN

§ Identity

Operator
Country
PRC
Launch date
2019-12-16
Launch site
XICLF
Launch vehicle
Mass (kg)
RCS (m²)

Purposes: nav

External: N2YO · Heavens-Above · Gunter

§ Orbital elements

Epoch: 2026-05-24T10:24:48.362976Z

Period
773.23 min
Inclination
56.5410°
Eccentricity
0.0016630
Mean motion
1.86231454 rev/d
Perigee alt
21,481.6 km
Apogee alt
21,574.4 km
Semi-major
27,906.1 km
B*
0.0000e+0
RAAN
63.6095°
Arg perigee
310.6974°
Mean anomaly
227.4211°
Rev number
4,377

§ Raw data

BEIDOU-3 M20 (C42)1 44865U 19090B   26144.43389309 -.00000070  00000+0  00000+0 0  99982 44865  56.5410  63.6095 0016630 310.6974 227.4211  1.86231454 43779

JSON: /api/v1/satellites/44865 · /tle

For live sub-satellite position, see the globe view (requires WebGL).

§ Visibility from observer

Set your observer location to see the next 7 days of passes ≥ 10°. The values pass through the URL so the page stays shareable.

No JS? Fill the form by hand. The geolocation button needs JavaScript.